Location: Alta
(39.2070°N, 120.8111°W)
Time: 07:43:30
(UTC+00:00)

ITAMSAT 1 - Pass Details

Date: 03 June 2024
Orbit: 781 x 796 km, 98.8° (Epoch: 20 June)

Event Time Altitude Azimuth Distance (km) Brightness Sun altitude
Exits shadow 06:07:26 - 226° (SW) 2,999 10.5 -22.9°
Reaches altitude 10° 06:11:04 10° 259° (WSW) 2,346 10.3 -23.2°
Maximum altitude 06:12:07 11° 270° (W) 2,307 10.4 -23.3°
Drops below altitude 10° 06:13:09 10° 282° (WNW) 2,347 10.6 -23.4°
Sets 06:17:49 0° 321° (NW) 3,280 12.2 -23.8°
